ǯ����,��ʬ��,�Ǿ��������١�,ʿ���������١�,�����������١�,�Ǿ���®(m/s),ʿ����®(m/s),������®(m/s),����(���,���١ʡ��,����(hPa),�߱���(mm),�߱�����(�á�,�߱�����(mm/h),�ߤҤ礦��(hit/���),�ߤҤ礦����(�á�,�ߤҤ礦����(hit/���h),�ҡ�������(���,�ҡ������Ű���V),�Ÿ��Ű���V),�����Ű���V)
2007/04/01,00:00:01,129,225,338,0.3,2.3,5.7,22.7,86.3,1005.4,0.00,0,0.0,0.0,0,0.0,22.2,0.0,12.1,3.472
2007/04/01,00:10:01,127,223,341,0.1,2.4,5.6,22.7,86.3,1005.5,0.00,0,0.0,0.0,0,0.0,22.2,0.0,12.3,3.470
2007/04/01,00:20:01,102,227,355,0.2,2.6,6.6,22.7,86.3,1005.6,0.00,0,0.0,0.0,0,0.0,22.6,0.0,11.9,3.470
2007/04/01,00:30:01,95,219,34,0.1,2.5,6.5,22.7,86.4,1005.5,0.00,0,0.0,0.0,0,0.0,22.2,0.0,12.0,3.470
2007/04/01,00:40:01,100,214,331,0.1,2.5,5.4,22.7,86.5,1005.2,0.00,0,0.0,0.0,0,0.0,22.2,0.0,11.9,3.470
2007/04/01,00:50:01,73,215,330,0.1,2.5,5.6,22.7,86.2,1005.1,0.00,0,0.0,0.0,0,0.0,22.4,0.0,12.2,3.470
2007/04/01,01:00:01,128,213,10,0.1,2.8,6.3,22.8,86.0,1005.0,0.00,0,0.0,0.0,0,0.0,22.4,0.0,12.0,3.470
2007/04/01,01:10:01,37,216,295,0.1,2.7,6.2,22.8,85.8,1005.0,0.00,0,0.0,0.0,0,0.0,22.6,0.0,11.9,3.472
2007/04/01,01:20:01,103,214,6,0.0,2.8,7.1,22.8,85.7,1004.8,0.00,0,0.0,0.0,0,0.0,22.4,0.0,12.0,3.472
2007/04/01,01:30:01,122,215,323,0.0,2.7,6.3,22.8,85.4,1004.8,0.00,0,0.0,0.0,0,0.0,22.6,0.0,12.0,3.470
2007/04/01,01:40:01,99,222,351,0.2,2.4,5.8,22.9,85.3,1004.8,0.00,0,0.0,0.0,0,0.0,22.6,0.0,11.9,3.470
2007/04/01,01:50:01,105,221,345,0.1,2.9,7.1,22.8,85.6,1004.7,0.00,0,0.0,0.0,0,0.0,22.2,0.0,12.1,3.470
2007/04/01,02:00:01,136,219,311,0.2,3.1,7.8,22.8,85.9,1004.6,0.00,0,0.0,0.0,0,0.0,22.2,0.0,12.1,3.470
2007/04/01,02:10:01,60,219,307,0.2,3.1,6.8,22.8,85.9,1004.5,0.00,0,0.0,0.0,0,0.0,22.4,0.0,12.1,3.470
2007/04/01,02:20:01,137,224,9,0.2,3.3,7.5,22.7,86.2,1004.5,0.00,0,0.0,0.0,0,0.0,22.4,0.0,12.1,3.472
2007/04/01,02:30:01,78,226,35,0.1,3.0,8.4,22.7,86.3,1004.5,0.00,0,0.0,0.0,0,0.0,22.2,0.0,12.2,3.472
2007/04/01,02:40:01,100,224,357,0.0,2.8,6.4,22.7,86.3,1004.5,0.00,0,0.0,0.0,0,0.0,22.4,0.0,11.9,3.470
2007/04/01,02:50:01,156,228,302,0.3,2.7,6.4,22.7,86.5,1004.5,0.00,0,0.0,0.0,0,0.0,22.6,0.0,12.1,3.470
2007/04/01,03:00:01,169,231,297,0.2,2.8,7.2,22.6,86.8,1004.3,0.00,0,0.0,0.0,0,0.0,21.7,0.0,12.2,3.470
2007/04/01,03:10:01,84,222,322,0.1,2.8,6.5,22.6,86.9,1004.0,0.00,0,0.0,0.0,0,0.0,22.1,0.0,11.9,3.472
2007/04/01,03:20:01,82,224,319,0.1,2.6,5.6,22.6,86.8,1003.9,0.00,0,0.0,0.0,0,0.0,22.2,0.0,11.9,3.472
2007/04/01,03:30:01,114,219,4,0.1,2.7,6.1,22.6,86.6,1003.8,0.00,0,0.0,0.0,0,0.0,22.2,0.0,11.9,3.470
2007/04/01,03:40:01,100,218,306,0.2,2.6,6.0,22.7,86.4,1003.6,0.00,0,0.0,0.0,0,0.0,22.1,0.0,12.0,3.473
2007/04/01,03:50:01,141,218,306,0.2,2.9,6.5,22.6,86.2,1003.5,0.00,0,0.0,0.0,0,0.0,22.2,0.0,12.2,3.472
2007/04/01,04:00:01,42,218,332,0.2,2.8,6.7,22.6,85.8,1003.5,0.00,0,0.0,0.0,0,0.0,22.4,0.0,12.1,3.472
2007/04/01,04:10:01,99,215,330,0.1,2.8,7.0,22.6,85.4,1003.5,0.00,0,0.0,0.0,0,0.0,22.2,0.0,11.9,3.472
2007/04/01,04:20:01,54,221,317,0.1,2.4,5.9,22.6,85.4,1003.5,0.00,0,0.0,0.0,0,0.0,22.2,0.0,12.3,3.470
2007/04/01,04:30:01,48,220,27,0.2,2.3,5.5,22.6,85.3,1003.5,0.00,0,0.0,0.0,0,0.0,22.2,0.0,11.9,3.470
2007/04/01,04:40:01,64,217,306,0.1,2.2,5.1,22.5,85.3,1003.6,0.00,0,0.0,0.0,0,0.0,22.1,0.0,11.8,3.472
2007/04/01,04:50:01,105,213,325,0.1,2.4,5.4,22.5,85.1,1003.5,0.00,0,0.0,0.0,0,0.0,22.1,0.0,11.8,3.472
2007/04/01,05:00:01,125,214,345,0.2,2.5,5.9,22.6,84.7,1003.4,0.00,0,0.0,0.0,0,0.0,22.2,0.0,12.1,3.472
2007/04/01,05:10:01,82,214,26,0.1,2.6,6.4,22.6,84.5,1003.6,0.00,0,0.0,0.0,0,0.0,22.2,0.0,12.1,3.472
2007/04/01,05:20:01,62,217,313,0.2,2.5,6.1,22.6,84.1,1003.7,0.00,0,0.0,0.0,0,0.0,22.2,0.0,12.2,3.470
2007/04/01,05:30:01,146,217,309,0.1,2.7,6.5,22.6,83.9,1003.9,0.00,0,0.0,0.0,0,0.0,22.6,0.0,12.1,3.470
2007/04/01,05:40:01,141,218,346,0.1,2.3,5.4,22.6,84.3,1004.1,0.00,0,0.0,0.0,0,0.0,22.6,0.0,12.0,3.472
2007/04/01,05:50:01,44,218,351,0.1,2.3,4.9,22.5,84.5,1004.2,0.00,0,0.0,0.0,0,0.0,22.1,0.0,12.1,3.470
2007/04/01,06:00:01,114,223,3,0.1,1.9,4.2,22.5,85.0,1004.4,0.00,0,0.0,0.0,0,0.0,22.1,0.0,12.1,3.470
2007/04/01,06:10:01,78,221,25,0.1,2.0,5.2,22.5,85.5,1004.5,0.00,0,0.0,0.0,0,0.0,21.9,0.0,12.1,3.472
2007/04/01,06:20:01,121,222,1,0.1,2.1,5.3,22.4,86.2,1004.7,0.00,0,0.0,0.0,0,0.0,21.7,0.0,12.1,3.472
2007/04/01,06:30:01,108,227,17,0.1,2.1,4.9,22.4,86.7,1004.7,0.00,0,0.0,0.0,0,0.0,21.9,0.0,12.0,3.472
2007/04/01,06:40:01,124,223,307,0.0,1.8,5.2,22.5,86.8,1004.7,0.00,0,0.0,0.0,0,0.0,22.2,0.0,12.1,3.473
2007/04/01,06:50:01,155,224,295,0.2,1.9,4.3,22.5,86.9,1004.8,0.00,0,0.0,0.0,0,0.0,21.9,0.0,12.1,3.472
2007/04/01,07:00:01,151,221,345,0.1,1.7,4.5,22.5,87.2,1004.8,0.00,0,0.0,0.0,0,0.0,22.2,0.0,12.2,3.472
2007/04/01,07:10:01,133,222,311,0.1,1.9,4.2,22.5,87.0,1004.9,0.00,0,0.0,0.0,0,0.0,22.4,0.0,12.1,3.472
2007/04/01,07:20:01,124,217,35,0.1,2.1,4.4,22.6,86.4,1005.0,0.00,0,0.0,0.0,0,0.0,22.7,0.0,12.3,3.472
2007/04/01,07:30:01,103,219,334,0.1,2.2,5.6,22.7,85.9,1005.0,0.00,0,0.0,0.0,0,0.0,23.1,0.0,12.2,3.472
2007/04/01,07:40:01,37,215,12,0.0,2.3,6.0,22.8,85.2,1004.9,0.00,0,0.0,0.0,0,0.0,23.6,0.0,11.8,3.470
2007/04/01,07:50:01,64,214,325,0.2,2.7,5.8,22.9,84.8,1004.9,0.00,0,0.0,0.0,0,0.0,23.6,0.0,12.1,3.472
2007/04/01,08:00:01,72,214,7,0.0,2.7,6.6,22.9,84.7,1004.9,0.00,0,0.0,0.0,0,0.0,23.6,0.0,11.8,3.472
2007/04/01,08:10:01,133,213,353,0.3,2.7,5.5,23.1,84.4,1004.9,0.00,0,0.0,0.0,0,0.0,23.4,0.0,12.0,3.470
2007/04/01,08:20:01,104,212,349,0.2,2.7,6.8,23.1,84.5,1004.9,0.00,0,0.0,0.0,0,0.0,23.1,0.0,12.2,3.470
2007/04/01,08:30:01,52,212,349,0.1,2.6,6.0,23.2,84.3,1004.9,0.00,0,0.0,0.0,0,0.0,23.8,0.0,12.2,3.470
2007/04/01,08:40:01,91,211,359,0.3,2.5,5.8,23.4,83.7,1004.9,0.00,0,0.0,0.0,0,0.0,24.6,0.0,12.2,3.469
2007/04/01,08:50:01,82,209,25,0.1,2.4,5.6,23.5,83.0,1004.9,0.00,0,0.0,0.0,0,0.0,24.9,0.0,11.9,3.469
2007/04/01,09:00:01,119,209,14,0.0,2.5,5.4,23.6,82.1,1004.8,0.00,0,0.0,0.0,0,0.0,24.9,0.0,12.2,3.469
2007/04/01,09:10:01,61,209,17,0.0,2.5,6.3,23.7,81.2,1004.7,0.00,0,0.0,0.0,0,0.0,25.1,0.0,11.8,3.470
2007/04/01,09:20:01,109,209,350,0.1,3.2,7.1,23.8,79.4,1004.7,0.00,0,0.0,0.0,0,0.0,25.3,0.0,11.9,3.469
2007/04/01,09:30:01,115,212,332,0.2,2.8,6.7,23.8,79.1,1004.8,0.00,0,0.0,0.0,0,0.0,25.6,0.0,12.1,3.469
2007/04/01,09:40:01,123,215,345,0.1,2.9,6.9,23.9,79.7,1004.7,0.00,0,0.0,0.0,0,0.0,25.6,0.0,11.9,3.473
2007/04/01,09:50:01,52,215,300,0.1,3.0,8.9,24.3,77.4,1004.7,0.00,0,0.0,0.0,0,0.0,27.6,0.0,11.9,3.469
2007/04/01,10:00:01,155,219,4,0.2,3.0,6.9,24.2,77.7,1004.9,0.00,0,0.0,0.0,0,0.0,27.3,0.0,11.9,3.469
2007/04/01,10:10:01,118,226,28,0.1,3.0,6.9,24.1,78.6,1004.9,0.00,0,0.0,0.0,0,0.0,27.1,0.0,12.2,3.469
2007/04/01,10:20:01,82,222,308,0.1,3.4,8.4,24.0,79.5,1004.9,0.00,0,0.0,0.0,0,0.0,26.9,0.0,11.9,3.470
2007/04/01,10:30:01,120,220,312,0.3,3.5,8.6,24.3,78.1,1004.8,0.00,0,0.0,0.0,0,0.0,27.4,0.0,11.8,3.469
2007/04/01,10:40:01,65,217,25,0.1,3.6,8.2,24.5,77.9,1004.7,0.00,0,0.0,0.0,0,0.0,27.9,0.0,12.2,3.469
2007/04/01,10:50:01,150,215,18,0.3,3.6,8.2,24.7,77.4,1004.7,0.00,0,0.0,0.0,0,0.0,28.1,0.0,12.1,3.469
2007/04/01,11:00:01,122,215,352,0.2,3.4,8.7,24.8,77.3,1004.6,0.00,0,0.0,0.0,0,0.0,28.5,0.0,12.0,3.467
2007/04/01,11:10:01,132,222,33,0.2,3.1,7.2,24.4,78.2,1004.7,0.00,0,0.0,0.0,0,0.0,28.1,0.0,12.2,3.468
2007/04/01,11:20:01,133,228,313,0.4,2.9,6.7,24.5,78.4,1004.6,0.00,0,0.0,0.0,0,0.0,28.5,0.0,12.2,3.469
2007/04/01,11:30:01,42,220,14,0.2,2.8,7.7,24.4,78.3,1004.6,0.00,0,0.0,0.0,0,0.0,27.9,0.0,12.2,3.469
2007/04/01,11:40:01,73,227,25,0.0,2.6,9.0,24.5,78.3,1004.5,0.00,0,0.0,0.0,0,0.0,27.9,0.0,12.1,3.470
2007/04/01,11:50:01,51,223,32,0.1,2.6,6.6,24.3,78.7,1004.4,0.00,0,0.0,0.0,0,0.0,27.4,0.0,12.0,3.470
2007/04/01,12:00:01,84,221,10,0.1,2.5,5.7,24.5,79.0,1004.2,0.00,0,0.0,0.0,0,0.0,27.6,0.0,12.1,3.467
2007/04/01,12:10:01,48,225,25,0.1,2.6,6.8,24.1,79.7,1004.1,0.00,0,0.0,0.0,0,0.0,27.1,0.0,12.2,3.469
2007/04/01,12:20:01,60,215,30,0.1,2.8,6.7,24.2,78.5,1003.9,0.00,0,0.0,0.0,0,0.0,26.8,0.0,12.2,3.470
2007/04/01,12:30:01,52,220,307,0.2,2.6,6.5,24.5,77.2,1003.8,0.00,0,0.0,0.0,0,0.0,27.3,0.0,11.9,3.469
2007/04/01,12:40:01,123,229,34,0.1,2.2,5.7,24.6,78.1,1003.6,0.00,0,0.0,0.0,0,0.0,27.8,0.0,12.2,3.469
2007/04/01,12:50:01,41,218,39,0.0,2.6,6.8,25.0,75.4,1003.3,0.00,0,0.0,0.0,0,0.0,29.1,0.0,12.2,3.468
2007/04/01,13:00:01,120,219,339,0.1,3.0,7.6,25.1,74.6,1003.1,0.00,0,0.0,0.0,0,0.0,29.1,0.0,12.2,3.468
2007/04/01,13:10:01,63,224,25,0.2,2.7,7.2,25.2,74.6,1003.1,0.00,0,0.0,0.0,0,0.0,29.3,0.0,11.8,3.469
2007/04/01,13:20:01,52,233,33,0.2,2.8,7.7,25.0,75.1,1002.9,0.00,0,0.0,0.0,0,0.0,29.6,0.0,11.8,3.468
2007/04/01,13:30:01,127,234,359,0.2,3.0,6.3,24.8,76.5,1002.7,0.00,0,0.0,0.0,0,0.0,28.6,0.0,12.2,3.469
2007/04/01,13:40:01,148,234,33,0.2,3.0,6.7,24.9,76.1,1002.7,0.00,0,0.0,0.0,0,0.0,29.3,0.0,12.2,3.469
2007/04/01,13:50:01,161,226,27,0.1,2.8,6.3,25.0,76.4,1002.5,0.00,0,0.0,0.0,0,0.0,28.6,0.0,12.0,3.469
2007/04/01,14:00:01,53,230,25,0.1,2.8,7.2,25.1,74.8,1002.3,0.00,0,0.0,0.0,0,0.0,29.3,0.0,11.9,3.469
2007/04/01,14:10:01,128,235,34,0.2,2.9,7.3,24.9,75.5,1002.2,0.00,0,0.0,0.0,0,0.0,29.0,0.0,12.2,3.469
2007/04/01,14:20:01,124,225,316,0.2,2.8,6.4,24.5,77.2,1002.0,0.00,0,0.0,0.0,0,0.0,27.3,0.0,12.0,3.469
2007/04/01,14:30:01,116,222,27,0.2,3.0,7.2,24.9,76.0,1002.0,0.00,0,0.0,0.0,0,0.0,27.3,0.0,11.9,3.469
2007/04/01,14:40:01,74,223,42,0.1,2.8,6.7,25.1,76.0,1001.9,0.00,0,0.0,0.0,0,0.0,28.1,0.0,11.9,3.470
2007/04/01,14:50:01,46,224,3,0.1,2.9,7.0,25.3,73.6,1001.8,0.00,0,0.0,0.0,0,0.0,29.1,0.0,11.9,3.469
2007/04/01,15:00:01,126,229,349,0.1,2.7,6.3,25.0,74.6,1001.8,0.00,0,0.0,0.0,0,0.0,28.5,0.0,11.9,3.469
2007/04/01,15:10:01,144,225,302,0.2,2.7,6.3,24.8,76.4,1001.7,0.00,0,0.0,0.0,0,0.0,27.1,0.0,11.8,3.469
2007/04/01,15:20:01,100,224,304,0.3,2.7,6.9,24.6,77.7,1001.8,0.00,0,0.0,0.0,0,0.0,26.8,0.0,11.9,3.469
2007/04/01,15:30:01,72,229,44,0.1,2.7,6.5,24.2,79.0,1001.8,0.00,10,0.0,0.0,0,0.0,26.1,0.0,11.9,3.469
2007/04/01,15:40:01,50,226,45,0.1,2.6,6.6,24.4,79.2,1001.6,0.00,0,0.0,0.0,0,0.0,26.1,0.0,12.2,3.469
2007/04/01,15:50:01,78,222,40,0.1,2.9,7.7,24.9,77.3,1001.5,0.00,0,0.0,0.0,0,0.0,27.6,0.0,12.1,3.470
2007/04/01,16:00:01,46,223,356,0.0,2.6,6.5,24.5,78.5,1001.5,0.00,0,0.0,0.0,0,0.0,26.6,0.0,12.1,3.469
2007/04/01,16:10:01,115,220,2,0.2,3.0,7.3,24.3,79.5,1001.5,0.00,0,0.0,0.0,0,0.0,25.9,0.0,11.9,3.470
2007/04/01,16:20:01,48,221,35,0.1,2.9,6.7,24.1,80.6,1001.5,0.00,0,0.0,0.0,0,0.0,25.1,0.0,12.2,3.469
2007/04/01,16:30:01,58,223,19,0.3,2.8,6.6,23.7,82.5,1001.4,0.01,30,0.0,0.0,0,0.0,23.9,0.0,12.0,3.470
2007/04/01,16:40:01,110,220,311,0.3,2.8,7.3,23.8,82.2,1001.4,0.00,0,0.0,0.0,0,0.0,24.4,0.0,11.8,3.469
2007/04/01,16:50:01,40,218,289,0.3,3.0,6.9,24.1,80.6,1001.4,0.00,0,0.0,0.0,0,0.0,25.3,0.0,12.1,3.470
2007/04/01,17:00:01,127,225,36,0.1,3.0,8.2,24.1,80.9,1001.5,0.00,0,0.0,0.0,0,0.0,25.6,0.0,11.9,3.469
2007/04/01,17:10:01,61,224,353,0.2,2.9,7.3,24.0,81.0,1001.6,0.00,0,0.0,0.0,0,0.0,25.6,0.0,11.9,3.470
2007/04/01,17:20:01,54,225,37,0.0,2.9,7.0,24.0,81.3,1001.7,0.00,0,0.0,0.0,0,0.0,25.3,0.0,11.9,3.469
2007/04/01,17:30:01,140,224,350,0.1,3.1,7.4,23.9,81.7,1001.7,0.00,0,0.0,0.0,0,0.0,24.9,0.0,12.0,3.470
2007/04/01,17:40:01,85,223,295,0.4,3.0,7.4,23.8,82.4,1001.7,0.00,0,0.0,0.0,0,0.0,24.6,0.0,11.9,3.470
2007/04/01,17:50:01,98,217,37,0.2,3.0,7.4,23.6,82.7,1001.6,0.00,0,0.0,0.0,0,0.0,24.3,0.0,12.1,3.470
2007/04/01,18:00:01,117,215,301,0.2,3.1,7.2,23.6,83.3,1001.5,0.00,0,0.0,0.0,0,0.0,23.8,0.0,11.9,3.470
2007/04/01,18:10:01,47,218,9,0.1,3.1,7.8,23.5,83.4,1001.4,0.00,0,0.0,0.0,0,0.0,23.9,0.0,12.1,3.472
2007/04/01,18:20:01,81,216,23,0.3,3.2,8.4,23.5,83.5,1001.5,0.00,0,0.0,0.0,0,0.0,23.6,0.0,12.1,3.473
2007/04/01,18:30:01,40,215,338,0.2,3.3,8.4,23.4,83.4,1001.5,0.00,0,0.0,0.0,0,0.0,23.6,0.0,12.2,3.472
2007/04/01,18:40:01,57,218,303,0.1,3.3,7.6,23.4,83.4,1001.7,0.00,0,0.0,0.0,0,0.0,23.4,0.0,12.2,3.470
2007/04/01,18:50:01,120,219,25,0.3,3.3,7.6,23.4,83.4,1001.8,0.00,0,0.0,0.0,0,0.0,23.6,0.0,12.1,3.472
2007/04/01,19:00:01,142,216,0,0.1,3.0,7.3,23.4,83.8,1001.8,0.00,0,0.0,0.0,0,0.0,23.3,0.0,12.2,3.470
2007/04/01,19:10:01,71,212,356,0.1,3.1,7.9,23.4,84.3,1001.8,0.00,0,0.0,0.0,0,0.0,23.3,0.0,12.1,3.470
2007/04/01,19:20:01,53,215,9,0.1,2.8,8.0,23.3,85.3,1001.8,0.00,20,0.0,0.0,0,0.0,23.1,0.0,12.0,3.470
2007/04/01,19:30:01,102,215,299,0.1,2.9,7.2,23.2,85.5,1001.7,0.00,0,0.0,0.0,0,0.0,22.9,0.0,12.3,3.470
2007/04/01,19:40:01,141,219,297,0.3,2.8,7.0,23.2,85.4,1001.8,0.00,0,0.0,0.0,0,0.0,23.1,0.0,12.1,3.470
2007/04/01,19:50:01,117,224,341,0.1,2.8,7.1,23.2,85.2,1001.6,0.00,0,0.0,0.0,0,0.0,23.1,0.0,12.0,3.472
2007/04/01,20:00:01,120,220,306,0.1,3.3,7.4,23.2,85.0,1001.8,0.00,0,0.0,0.0,0,0.0,22.9,0.0,12.3,3.469
2007/04/01,20:10:01,52,222,321,0.1,3.2,8.6,23.2,85.0,1001.9,0.00,0,0.0,0.0,0,0.0,23.1,0.0,12.2,3.472
2007/04/01,20:20:01,144,225,356,0.0,3.0,8.5,23.1,85.1,1002.0,0.00,0,0.0,0.0,0,0.0,22.9,0.0,12.2,3.470
2007/04/01,20:30:01,69,224,25,0.0,2.9,7.6,23.2,84.8,1002.1,0.00,0,0.0,0.0,0,0.0,22.9,0.0,12.1,3.470
2007/04/01,20:40:01,109,224,340,0.2,3.0,7.6,23.1,84.9,1002.0,0.00,0,0.0,0.0,0,0.0,22.9,0.0,11.9,3.470
2007/04/01,20:50:01,116,224,17,0.2,3.0,6.5,23.1,84.9,1001.9,0.00,0,0.0,0.0,0,0.0,22.9,0.0,12.0,3.472
2007/04/01,21:00:01,124,226,358,0.2,3.1,7.1,23.1,84.8,1002.0,0.00,0,0.0,0.0,0,0.0,23.1,0.0,12.1,3.470
2007/04/01,21:10:01,100,232,344,0.1,2.9,7.8,23.1,85.0,1002.2,0.00,0,0.0,0.0,0,0.0,22.7,0.0,12.1,3.473
2007/04/01,21:20:01,150,234,299,0.1,3.0,7.6,23.0,85.4,1002.3,0.00,0,0.0,0.0,0,0.0,22.6,0.0,11.9,3.470
2007/04/01,21:30:01,133,233,357,0.0,3.0,6.6,22.8,85.9,1002.3,0.00,0,0.0,0.0,0,0.0,22.6,0.0,11.9,3.470
2007/04/01,21:40:01,118,231,40,0.2,2.4,6.3,22.8,86.3,1002.4,0.00,0,0.0,0.0,0,0.0,22.4,0.0,12.3,3.472
2007/04/01,21:50:01,89,227,7,0.1,2.6,5.9,23.0,86.1,1002.3,0.00,0,0.0,0.0,0,0.0,22.6,0.0,12.3,3.469
2007/04/01,22:00:01,103,229,0,0.1,2.9,6.8,22.9,86.1,1002.5,0.00,0,0.0,0.0,0,0.0,22.6,0.0,12.0,3.470
2007/04/01,22:10:01,131,232,341,0.2,2.9,6.9,22.8,86.7,1002.7,0.00,0,0.0,0.0,0,0.0,22.6,0.0,12.0,3.470
2007/04/01,22:20:01,160,234,285,0.2,3.0,6.7,22.9,86.5,1002.9,0.00,0,0.0,0.0,0,0.0,22.4,0.0,12.2,3.470
2007/04/01,22:30:01,132,234,52,0.3,2.7,6.2,23.0,86.5,1002.9,0.00,0,0.0,0.0,0,0.0,22.7,0.0,11.9,3.473
2007/04/01,22:40:01,137,229,1,0.2,2.9,6.4,23.1,86.1,1002.8,0.00,0,0.0,0.0,0,0.0,22.9,0.0,12.2,3.470
2007/04/01,22:50:01,135,225,322,0.1,2.9,6.2,23.1,85.8,1002.7,0.00,0,0.0,0.0,0,0.0,23.3,0.0,11.9,3.472
2007/04/01,23:00:01,131,220,289,0.1,2.7,6.6,23.2,85.8,1002.4,0.00,0,0.0,0.0,0,0.0,23.1,0.0,12.2,3.470
2007/04/01,23:10:01,113,219,347,0.1,2.7,7.3,23.2,85.9,1002.5,0.00,20,0.0,0.0,0,0.0,23.1,0.0,12.2,3.470
2007/04/01,23:20:01,99,226,318,0.1,2.6,6.7,22.9,86.4,1002.4,0.00,0,0.0,0.0,0,0.0,22.6,0.0,12.1,3.470
2007/04/01,23:30:01,107,227,309,0.2,2.8,7.5,23.0,86.6,1002.4,0.00,0,0.0,0.0,0,0.0,22.9,0.0,12.2,3.472
2007/04/01,23:40:01,120,222,347,0.2,3.4,7.5,23.2,86.7,1002.2,0.00,0,0.0,0.0,0,0.0,22.9,0.0,12.1,3.472
2007/04/01,23:50:01,73,220,353,0.1,3.1,8.4,23.1,87.1,1002.2,0.00,0,0.0,0.0,0,0.0,22.7,0.0,12.2,3.472
2007/04/02,00:00:01,132,223,292,0.3,3.3,8.0,23.0,87.5,1002.2,0.00,0,0.0,0.0,0,0.0,22.7,0.0,12.1,3.472
2007/04/02,00:10:01,73,229,340,0.2,3.4,8.4,23.0,87.5,1002.2,0.00,0,0.0,0.0,0,0.0,22.7,0.0,12.2,3.470
2007/04/02,00:20:01,107,234,46,0.1,3.6,9.1,22.9,87.2,1002.3,0.00,0,0.0,0.0,0,0.0,22.9,0.0,12.3,3.472
2007/04/02,00:30:01,130,239,47,0.2,4.0,8.9,23.0,87.4,1002.4,0.00,0,0.0,0.0,0,0.0,22.9,0.0,12.1,3.470
2007/04/02,00:40:01,126,237,306,0.2,4.2,12.0,23.0,87.7,1002.3,0.00,0,0.0,0.0,0,0.0,22.7,0.0,12.2,3.474
2007/04/02,00:50:01,139,233,336,0.1,3.5,9.2,22.9,87.8,1002.2,0.00,0,0.0,0.0,0,0.0,22.7,0.0,12.2,3.472
2007/04/02,01:00:01,132,229,344,0.2,3.3,8.7,23.0,87.6,1002.1,0.00,0,0.0,0.0,0,0.0,22.9,0.0,12.2,3.472
2007/04/02,01:10:01,122,231,349,0.4,3.8,8.5,23.0,87.6,1002.2,0.00,0,0.0,0.0,0,0.0,22.9,0.0,12.2,3.472
2007/04/02,01:20:01,146,231,339,0.0,3.6,8.4,22.8,87.8,1002.2,0.00,0,0.0,0.0,0,0.0,22.6,0.0,12.1,3.472
2007/04/02,01:30:01,121,228,22,0.0,3.0,8.7,22.8,88.2,1002.1,0.00,0,0.0,0.0,0,0.0,22.6,0.0,11.9,3.472
2007/04/02,01:40:01,115,227,359,0.1,3.3,8.2,22.8,88.3,1002.1,0.00,0,0.0,0.0,0,0.0,22.7,0.0,11.9,3.470
2007/04/02,01:50:01,123,227,318,0.4,3.3,8.1,22.8,88.5,1002.1,0.00,0,0.0,0.0,0,0.0,22.6,0.0,12.2,3.473
2007/04/02,02:00:01,90,229,7,0.2,3.6,9.9,22.8,88.7,1001.9,0.00,0,0.0,0.0,0,0.0,22.6,0.0,12.0,3.472
2007/04/02,02:10:01,109,227,302,0.0,3.8,9.0,22.7,89.2,1001.7,0.00,0,0.0,0.0,0,0.0,22.4,0.0,12.0,3.470
2007/04/02,02:20:01,112,225,309,0.2,3.6,9.3,22.7,89.5,1001.6,0.00,0,0.0,0.0,0,0.0,22.4,0.0,11.9,3.472
2007/04/02,02:30:01,101,229,303,0.1,3.8,8.4,22.7,89.9,1001.6,0.00,0,0.0,0.0,0,0.0,22.2,0.0,12.0,3.472
2007/04/02,02:40:01,65,232,21,0.2,3.7,9.6,22.7,90.0,1001.5,0.00,0,0.0,0.0,0,0.0,22.6,0.0,12.2,3.472
2007/04/02,02:50:01,99,232,354,0.3,4.2,11.0,22.6,90.1,1001.5,0.00,0,0.0,0.0,0,0.0,22.6,0.0,12.2,3.470
2007/04/02,03:00:01,143,236,311,0.2,4.0,9.5,22.6,90.1,1001.6,0.00,0,0.0,0.0,0,0.0,22.4,0.0,12.0,3.472
2007/04/02,03:10:01,135,240,29,0.3,4.1,8.9,22.5,90.6,1001.4,0.00,0,0.0,0.0,0,0.0,22.4,0.0,11.9,3.474
2007/04/02,03:20:01,144,240,33,0.2,4.3,9.2,22.5,90.7,1001.2,0.00,0,0.0,0.0,0,0.0,22.2,0.0,12.1,3.472
2007/04/02,03:30:01,116,238,3,0.2,4.3,9.9,22.5,90.6,1001.2,0.00,0,0.0,0.0,0,0.0,22.2,0.0,11.9,3.472
2007/04/02,03:40:01,90,243,329,0.1,5.1,11.6,22.6,90.6,1001.2,0.00,0,0.0,0.0,0,0.0,22.4,0.0,12.1,3.472
2007/04/02,03:50:01,186,244,356,0.4,6.0,11.1,22.6,90.5,1001.2,0.00,0,0.0,0.0,0,0.0,22.4,0.0,12.2,3.469
2007/04/02,04:00:01,174,244,314,0.6,5.7,11.7,22.5,90.7,1001.2,0.00,0,0.0,0.0,0,0.0,22.4,0.0,12.0,3.473
2007/04/02,04:10:01,190,243,304,0.4,5.5,11.0,22.5,91.0,1001.3,0.00,0,0.0,0.0,0,0.0,22.2,0.0,12.1,3.470
2007/04/02,04:20:01,131,245,334,0.0,5.1,11.1,22.5,91.2,1001.2,0.00,0,0.0,0.0,0,0.0,22.1,0.0,12.1,3.470
2007/04/02,04:30:01,79,258,68,0.0,3.3,9.5,22.3,91.4,1001.3,0.00,0,0.0,0.0,0,0.0,22.1,0.0,12.2,3.470
2007/04/02,04:40:01,90,270,87,0.0,3.2,9.8,22.0,91.5,1001.3,0.00,0,0.0,0.0,0,0.0,21.6,0.0,11.8,3.472
2007/04/02,04:50:01,119,301,112,0.0,3.1,7.9,21.8,91.7,1001.4,0.00,0,0.0,0.0,0,0.0,21.6,0.0,12.2,3.470
2007/04/02,05:00:01,123,298,117,0.0,2.5,7.5,21.7,91.9,1001.5,0.00,0,0.0,0.0,0,0.0,21.4,0.0,12.2,3.472
2007/04/02,05:10:01,116,296,113,0.0,2.0,5.8,21.6,91.9,1001.6,0.00,0,0.0,0.0,0,0.0,21.2,0.0,11.9,3.472
2007/04/02,05:20:01,95,273,51,0.1,1.8,4.3,21.6,92.0,1001.7,0.00,0,0.0,0.0,0,0.0,21.1,0.0,12.1,3.472
2007/04/02,05:30:01,172,260,38,0.0,1.6,4.1,21.6,92.0,1001.7,0.13,220,0.0,0.0,0,0.0,21.1,0.0,12.0,3.472
2007/04/02,05:40:01,96,274,92,0.0,1.3,3.2,21.6,92.1,1001.5,0.09,80,0.0,0.0,0,0.0,21.1,0.0,12.1,3.472
2007/04/02,05:50:01,102,275,28,0.1,1.1,2.7,21.6,92.1,1001.7,0.00,0,0.0,0.0,0,0.0,20.9,0.0,11.9,3.472
2007/04/02,06:00:01,190,250,320,0.0,1.2,3.5,21.6,92.2,1002.2,0.07,320,1.5,0.0,0,0.0,21.1,0.0,11.8,3.470
2007/04/02,06:10:01,124,228,41,0.1,1.7,4.1,21.6,92.2,1002.1,0.55,490,3.6,0.0,0,0.0,20.9,0.0,12.1,3.473
2007/04/02,06:20:01,152,220,314,0.0,1.5,3.9,21.6,92.5,1002.5,0.13,440,0.0,0.0,0,0.0,20.9,0.0,12.1,3.472
2007/04/02,06:30:01,156,221,31,0.2,2.1,4.7,21.6,92.5,1002.5,0.00,0,0.0,0.0,0,0.0,21.1,0.0,12.1,3.470
2007/04/02,06:40:01,137,225,336,0.2,2.2,5.0,21.6,92.6,1002.6,0.00,0,0.0,0.0,0,0.0,21.2,0.0,12.0,3.472
2007/04/02,06:50:01,118,223,296,0.1,2.5,5.4,21.6,92.6,1002.7,0.00,0,0.0,0.0,0,0.0,20.9,0.0,11.9,3.472
2007/04/02,07:00:01,70,222,359,0.1,2.6,6.8,21.4,92.7,1002.6,0.00,0,0.0,0.0,0,0.0,21.2,0.0,12.2,3.472
2007/04/02,07:10:01,135,216,285,0.2,2.9,5.9,21.3,92.6,1002.6,0.02,310,0.0,0.0,0,0.0,20.9,0.0,12.1,3.473
2007/04/02,07:20:01,133,221,328,0.2,2.8,6.5,21.3,92.5,1002.4,0.09,200,0.0,0.0,0,0.0,20.9,0.0,11.9,3.473
2007/04/02,07:30:01,47,226,6,0.1,2.6,5.8,21.4,92.3,1002.4,0.00,0,0.0,0.0,0,0.0,20.9,0.0,12.1,3.472
2007/04/02,07:40:01,117,224,293,0.2,2.6,5.7,21.4,92.1,1002.4,0.00,30,0.0,0.0,0,0.0,20.9,0.0,12.0,3.472
2007/04/02,07:50:01,159,226,307,0.1,2.5,6.0,21.4,91.8,1002.4,0.00,0,0.0,0.0,0,0.0,21.1,0.0,11.8,3.472
2007/04/02,08:00:01,119,229,5,0.1,2.4,6.3,21.4,91.6,1002.5,0.00,0,0.0,0.0,0,0.0,20.9,0.0,12.2,3.472
2007/04/02,08:10:01,113,224,312,0.1,2.4,5.3,21.5,91.3,1002.6,0.00,0,0.0,0.0,0,0.0,21.1,0.0,11.8,3.473
2007/04/02,08:20:01,165,235,288,0.3,2.4,5.7,21.4,91.2,1002.7,0.00,0,0.0,0.0,0,0.0,21.2,0.0,12.2,3.472
2007/04/02,08:30:01,143,235,297,0.0,2.6,5.2,21.5,91.0,1002.7,0.00,0,0.0,0.0,0,0.0,21.4,0.0,11.9,3.472
2007/04/02,08:40:01,104,228,290,0.2,2.1,4.6,21.5,90.7,1002.6,0.00,0,0.0,0.0,0,0.0,21.4,0.0,12.0,3.472
2007/04/02,08:50:01,108,220,32,0.1,1.9,4.0,21.4,90.7,1002.4,0.00,0,0.0,0.0,0,0.0,21.4,0.0,12.1,3.473
2007/04/02,09:00:01,139,220,311,0.1,2.0,4.5,21.4,90.4,1002.6,0.00,0,0.0,0.0,0,0.0,21.7,0.0,12.2,3.472
2007/04/02,09:10:01,135,225,291,0.2,2.0,4.7,21.5,90.1,1002.7,0.00,0,0.0,0.0,0,0.0,21.6,0.0,12.1,3.472
2007/04/02,09:20:01,136,228,287,0.2,2.1,4.4,21.4,89.9,1002.7,0.00,0,0.0,0.0,0,0.0,21.6,0.0,11.8,3.472
2007/04/02,09:30:01,141,232,296,0.2,2.3,4.8,21.6,89.8,1003.0,0.00,0,0.0,0.0,0,0.0,22.1,0.0,11.8,3.472
2007/04/02,09:40:01,69,235,29,0.1,2.7,6.1,21.6,89.6,1003.1,0.00,0,0.0,0.0,0,0.0,22.1,0.0,12.2,3.472
2007/04/02,09:50:01,165,236,296,0.3,2.7,5.8,21.7,89.0,1003.2,0.00,0,0.0,0.0,0,0.0,22.7,0.0,12.3,3.470
2007/04/02,10:00:01,120,231,33,0.1,2.5,5.9,21.8,89.0,1003.1,0.00,0,0.0,0.0,0,0.0,23.6,0.0,11.9,3.472
2007/04/02,10:10:01,159,231,297,0.2,2.5,5.3,22.0,88.5,1003.2,0.00,0,0.0,0.0,0,0.0,23.8,0.0,12.1,3.470
2007/04/02,10:20:01,173,239,290,0.6,2.8,5.6,21.9,88.5,1003.2,0.00,0,0.0,0.0,0,0.0,23.3,0.0,12.0,3.470
2007/04/02,10:30:01,71,236,314,0.1,2.4,5.2,22.1,88.6,1003.2,0.00,0,0.0,0.0,0,0.0,23.6,0.0,11.9,3.473
2007/04/02,10:40:01,81,240,36,0.1,2.5,5.4,22.1,88.4,1003.1,0.00,0,0.0,0.0,0,0.0,24.1,0.0,12.2,3.470
2007/04/02,10:50:01,182,244,332,0.5,2.9,5.4,22.4,88.5,1003.2,0.00,0,0.0,0.0,0,0.0,25.6,0.0,12.2,3.469
2007/04/02,11:00:01,99,263,44,0.0,2.1,5.3,22.4,87.9,1003.1,0.00,0,0.0,0.0,0,0.0,25.8,0.0,12.0,3.470
2007/04/02,11:10:01,83,260,51,0.0,2.2,5.1,22.1,87.4,1002.9,0.00,0,0.0,0.0,0,0.0,25.6,0.0,11.8,3.469
2007/04/02,11:20:01,178,249,32,0.1,2.4,5.0,22.4,87.2,1002.9,0.00,0,0.0,0.0,0,0.0,26.4,0.0,12.2,3.470
2007/04/02,11:30:01,107,262,79,0.1,2.1,5.8,22.3,86.2,1002.9,0.00,0,0.0,0.0,0,0.0,27.1,0.0,12.1,3.469
2007/04/02,11:40:01,136,269,64,0.1,2.1,5.5,22.1,85.0,1002.8,0.00,0,0.0,0.0,0,0.0,26.3,0.0,12.3,3.469
2007/04/02,11:50:01,90,252,50,0.2,2.1,5.3,22.5,84.7,1002.7,0.00,0,0.0,0.0,0,0.0,27.1,0.0,11.9,3.469
2007/04/02,12:00:01,82,245,43,0.0,2.0,4.8,22.1,83.7,1002.7,0.00,0,0.0,0.0,0,0.0,25.8,0.0,11.9,3.470
2007/04/02,12:10:01,140,244,332,0.1,2.5,5.7,22.5,84.6,1002.7,0.00,0,0.0,0.0,0,0.0,26.1,0.0,12.1,3.470
2007/04/02,12:20:01,122,271,54,0.1,2.2,5.9,22.4,83.8,1002.7,0.00,0,0.0,0.0,0,0.0,26.1,0.0,12.0,3.470
2007/04/02,12:30:01,123,272,82,0.1,2.7,5.8,22.4,84.5,1002.7,0.00,0,0.0,0.0,0,0.0,26.1,0.0,12.2,3.469
2007/04/02,12:40:01,158,252,50,0.0,2.4,5.6,22.6,83.4,1002.5,0.00,0,0.0,0.0,0,0.0,26.9,0.0,11.9,3.469
2007/04/02,12:50:01,122,247,331,0.1,3.0,5.5,22.2,83.4,1002.5,0.00,0,0.0,0.0,0,0.0,25.9,0.0,12.1,3.469
2007/04/02,13:00:01,107,262,71,0.0,1.9,5.3,22.6,82.6,1002.7,0.00,0,0.0,0.0,0,0.0,26.1,0.0,12.1,3.470
2007/04/02,13:10:01,73,251,41,0.0,1.7,5.9,22.3,82.2,1002.6,0.00,0,0.0,0.0,0,0.0,25.6,0.0,12.2,3.469
2007/04/02,13:20:01,84,253,68,0.0,2.0,5.9,22.2,82.9,1002.6,0.00,0,0.0,0.0,0,0.0,24.8,0.0,11.9,3.469
2007/04/02,13:30:01,95,267,82,0.0,2.0,6.3,22.2,81.7,1002.5,0.00,0,0.0,0.0,0,0.0,25.4,0.0,12.2,3.470
2007/04/02,13:40:01,125,271,58,0.1,3.3,6.4,21.8,81.5,1002.4,0.00,0,0.0,0.0,0,0.0,24.9,0.0,11.9,3.470
2007/04/02,13:50:01,187,267,77,0.2,3.5,7.0,21.7,81.9,1002.4,0.00,0,0.0,0.0,0,0.0,23.9,0.0,11.9,3.470
2007/04/02,14:00:01,97,267,83,0.0,2.5,6.6,21.7,82.0,1002.3,0.00,0,0.0,0.0,0,0.0,23.1,0.0,11.9,3.470
2007/04/02,14:10:01,197,270,12,0.3,2.9,7.3,21.5,82.8,1002.3,0.00,0,0.0,0.0,0,0.0,22.4,0.0,12.0,3.470
2007/04/02,14:20:01,163,317,122,0.0,3.8,11.6,20.5,85.0,1002.3,0.00,0,0.0,0.0,0,0.0,21.1,0.0,12.0,3.472
2007/04/02,14:30:01,226,21,158,0.1,6.2,11.7,19.8,87.7,1002.2,0.00,10,0.0,0.0,0,0.0,19.6,0.0,12.3,3.473
2007/04/02,14:40:01,245,21,139,0.1,6.9,12.9,19.5,88.9,1002.1,0.00,0,0.0,0.0,0,0.0,18.9,0.0,12.0,3.473
2007/04/02,14:50:01,225,22,173,0.7,7.5,15.9,19.2,88.3,1002.1,0.00,20,0.0,0.0,0,0.0,18.6,0.0,12.0,3.472